RH
89 92 94 94 96 93 90 88 90 94 91 86 82 75 71 68 66 68 69 70 69 66 66 64 67 73 74 73 75 76 75 74 70 69 69 71 79 85 84 82 85 84 78 68 55 40 34 36 33 29 38 55 62 63 58 41 26 22 22 20 19 19 20 19 20 20 21 22 23 24 24 25 26 25 25 25 25 25 25 24 23 22 22 23 26 29 32 36 40 44 46 46 45 45 45 42 34
94 90 91 93 94 93 92 89 89 91 89 84 79 74 71 70 69 74 76 76 72 68 66 67 70 74 74 71 70 69 69 66 64 66 66 68 73 82 85 80 83 83 74 60 43 32 29 29 27 25 28 38 43 47 42 24 20 21 19 19 18 19 18 18 20 21 23 23 24 25 26 26 25 25 25 25 25 25 25 25 25 24 24 24 25 25 27 29 32 35 38 42 42 44 47 50 49
92 89 90 90 91 89 90 86 84 86 83 80 77 75 73 71 71 78 80 78 75 72 72 75 76 75 73 69 69 68 66 61 59 62 60 61 62 73 83 79 80 78 68 49 34 29 27 26 26 26 24 28 31 29 24 19 19 19 18 19 18 19 19 19 21 22 23 24 25 25 25 24 24 24 25 26 26 26 26 27 28 28 28 27 26 25 25 26 28 31 33 35 36 40 43 47 53
89 91 91 92 95 89 87 82 78 79 78 78 77 75 74 73 75 79 77 76 76 76 78 80 79 76 74 71 70 68 63 59 56 56 56 57 56 61 73 74 74 71 61 43 32 30 28 28 28 26 23 25 28 22 19 19 18 18 18 19 19 20 20 20 20 22 23 23 23 23 23 23 25 26 30 34 34 32 30 29 29 30 31 32 32 29 27 25 26 29 33 35 34 37 41 45 51
92 93 92 95 96 89 86 81 77 76 75 74 73 71 71 73 76 78 76 75 76 79 83 85 83 78 75 73 72 69 63 60 56 52 52 54 52 52 59 64 63 56 47 36 31 29 28 29 26 23 20 21 21 19 19 18 17 18 19 20 20 20 21 21 19 20 21 21 21 21 23 25 28 32 39 43 44 45 45 45 44 43 41 39 38 36 33 30 29 28 30 33 35 37 39 42 45
94 94 90 91 90 86 85 80 76 72 69 67 66 65 64 66 71 76 78 78 77 80 86 87 84 78 76 75 75 74 69 66 59 52 50 49 47 48 50 54 50 39 34 31 28 27 26 26 23 20 19 20 19 19 17 15 16 18 19 20 20 20 21 20 18 19 19 19 20 22 24 27 31 38 46 48 50 55 59 61 61 60 59 55 50 46 42 37 35 31 28 29 30 33 35 37 38
94 93 89 89 90 88 86 81 76 70 66 65 63 61 59 59 62 69 76 78 77 78 82 84 83 81 79 78 77 74 70 67 61 55 50 43 41 43 44 42 35 28 29 30 28 26 24 22 20 20 20 20 19 17 14 14 16 17 18 19 20 21 20 19 18 17 18 19 22 24 26 29 35 43 48 49 51 55 58 58 58 62 66 67 61 57 53 43 38 35 32 31 31 31 33 36 37
89 87 85 87 89 90 90 84 79 74 69 66 64 63 60 58 56 58 68 76 76 78 80 81 83 83 79 75 71 65 63 63 59 56 49 39 35 35 36 31 25 23 26 27 25 24 22 21 20 21 22 20 17 14 12 13 15 17 19 20 23 23 21 19 17 17 19 21 24 26 29 33 37 41 43 43 45 47 48 49 53 61 67 70 68 66 61 48 39 39 40 40 41 40 37 37 38
80 79 81 83 82 80 85 86 82 79 72 67 65 67 65 62 60 55 60 68 69 73 77 79 80 81 79 72 68 62 58 57 55 55 47 36 32 28 27 24 21 21 23 24 23 23 22 21 21 22 21 17 13 11 11 14 17 19 21 23 25 25 22 18 17 19 21 25 28 30 32 34 34 34 35 35 37 39 41 45 53 65 71 71 69 65 58 46 40 44 50 53 56 57 54 49 44
76 76 79 79 71 60 65 80 85 84 76 69 68 70 66 62 63 60 56 57 58 59 63 70 72 73 79 74 67 64 58 52 51 52 44 33 28 24 22 22 21 21 22 24 24 24 23 21 22 23 19 13 10 9 12 16 19 22 24 26 27 26 23 20 20 23 26 30 31 31 29 28 28 30 31 32 35 38 40 45 54 65 71 70 65 60 54 51 51 55 59 62 64 64 63 62 58
78 76 74 72 67 54 48 62 77 82 83 79 76 70 62 57 59 61 57 53 52 50 52 60 62 65 77 76 66 62 57 51 50 48 39 30 25 20 21 22 22 23 22 23 23 22 20 20 23 22 15 10 8 10 15 20 23 25 27 29 29 28 25 23 25 29 32 31 28 24 21 23 25 28 31 33 36 38 41 45 51 58 64 65 62 59 57 57 58 58 58 59 60 62 63 64 63
78 78 74 71 72 65 48 46 53 58 67 71 75 67 48 42 47 54 56 52 49 47 48 50 53 57 66 71 64 60 57 50 48 45 35 28 23 20 23 23 22 23 21 20 19 17 17 20 23 19 11 8 9 13 19 24 26 28 30 31 31 30 28 29 31 32 29 23 19 16 16 18 21 24 27 31 35 38 42 45 46 49 51 53 55 57 58 59 60 59 58 58 61 64 68 71 68
79 80 78 74 68 65 52 47 47 42 44 43 55 57 38 36 44 48 48 46 42 39 41 44 50 54 57 62 59 58 57 50 47 44 35 27 22 22 24 24 22 22 21 18 14 12 17 22 22 14 9 9 11 17 23 26 28 30 32 32 33 33 32 32 30 25 19 14 11 10 11 12 14 18 23 29 35 39 41 42 43 45 47 51 55 57 58 61 61 58 55 52 51 53 61 73 79
80 82 81 76 65 69 68 64 61 49 39 32 38 44 39 48 52 47 44 42 37 32 36 42 50 55 57 59 56 58 57 50 46 43 38 29 24 25 24 23 24 23 21 16 11 12 18 22 18 11 9 11 15 21 25 27 31 32 32 33 33 33 33 29 22 14 10 8 7 6 7 7 9 13 18 24 27 27 27 28 32 36 38 39 37 34 34 37 39 39 36 32 27 30 44 59 71
79 84 81 79 74 80 81 74 70 57 42 32 30 33 42 57 57 48 45 48 43 35 37 43 48 50 51 52 54 61 60 52 45 41 39 33 28 27 24 25 26 25 23 14 10 14 19 19 15 11 11 14 19 23 24 29 33 32 32 32 32 32 29 21 13 8 7 6 5 6 6 6 6 7 10 11 11 10 10 13 16 18 18 15 12 9 10 13 15 16 15 12 10 14 25 34 41
74 80 80 82 82 83 80 72 69 61 47 33 23 24 38 51 53 46 43 50 51 44 43 47 49 46 42 42 49 62 64 54 45 38 38 36 32 29 25 27 28 27 24 14 11 15 17 15 12 12 14 17 20 21 25 31 33 32 31 31 31 29 23 13 7 6 6 6 6 6 6 5 5 5 5 5 5 5 5 6 7 7 7 6 5 5 6 6 6 7 6 5 6 8 11 14 16
67 75 81 82 85 84 79 74 69 63 52 39 23 16 24 33 36 36 36 44 50 50 47 47 49 45 40 39 43 56 61 54 44 37 37 37 34 30 28 30 29 29 24 14 13 16 14 13 12 14 17 18 18 21 28 33 32 30 29 30 29 23 14 7 5 6 5 6 6 5 5 5 5 5 5 5 5 5 5 6 6 6 6 7 7 7 7 7 8 7 7 7 7 6 6 7 8
64 73 80 80 90 89 80 77 73 65 52 42 30 16 14 17 20 23 33 45 52 54 50 46 49 48 44 42 42 48 55 53 46 40 36 35 34 31 31 32 30 30 24 14 15 15 13 13 14 17 18 18 17 22 30 33 31 29 28 26 21 13 7 5 5 5 6 6 5 5 5 5 5 5 5 6 6 6 6 6 6 6 7 9 10 9 9 9 12 11 9 10 9 8 8 7 7
65 75 78 77 91 91 79 76 71 63 51 42 34 22 14 12 13 14 22 35 42 43 44 46 51 56 52 47 44 44 48 52 50 43 37 34 33 32 32 33 30 30 24 14 16 15 13 14 15 18 18 16 18 24 30 31 30 28 25 19 11 6 4 5 6 6 6 5 5 4 5 5 5 5 6 6 6 6 6 6 6 6 8 9 10 9 8 8 11 12 11 11 11 9 9 8 8
68 78 79 74 86 88 78 74 69 61 51 41 35 28 20 13 12 13 15 19 24 27 35 44 49 61 61 53 50 45 43 46 48 44 39 36 34 34 34 34 31 30 23 14 16 15 13 15 16 17 16 17 19 23 29 30 30 28 20 11 6 4 4 6 6 6 5 5 5 5 5 5 6 6 6 6 6 6 6 6 6 6 6 7 7 7 7 7 7 8 10 11 11 11 10 8 8
74 82 77 71 83 87 77 73 68 58 49 42 37 30 23 17 12 14 14 13 17 20 27 34 39 54 60 56 54 51 46 42 43 44 40 37 35 35 35 33 30 28 21 14 17 15 13 14 15 16 16 17 19 22 27 29 29 23 14 7 4 4 5 7 7 6 5 5 5 5 5 6 6 6 6 6 6 6 6 6 6 6 6 6 6 6 6 6 7 8 9 10 10 10 10 9 9
82 85 75 73 84 86 76 74 67 54 47 43 38 29 21 20 16 15 16 14 16 19 25 29 31 41 47 48 49 47 46 44 42 43 41 36 34 34 33 29 26 24 17 14 18 15 12 14 14 15 16 17 19 21 25 28 25 17 9 6 6 6 7 8 7 6 5 5 5 5 6 6 6 6 6 6 6 7 8 8 8 8 7 6 6 6 6 6 7 7 8 9 9 9 10 9 9
90 84 77 77 81 84 79 74 67 55 48 42 36 27 18 17 17 16 16 15 16 19 25 29 29 32 35 38 40 37 41 44 42 43 40 32 28 28 28 23 23 22 14 15 18 13 11 14 13 14 15 17 18 22 26 28 22 12 8 8 8 9 9 7 6 6 5 5 5 5 6 6 6 6 6 7 7 8 9 10 11 10 9 8 7 6 6 6 6 7 8 8 8 8 9 9 9
89 81 81 79 75 78 78 75 68 59 51 41 31 23 17 15 15 14 13 13 16 19 23 28 29 28 27 28 30 30 34 38 40 44 38 27 21 21 21 21 23 20 13 16 17 11 12 13 12 14 14 15 17 22 27 30 22 11 8 11 12 11 9 7 6 5 5 6 6 6 6 6 6 7 7 8 9 10 11 12 12 11 10 9 8 7 6 6 6 7 8 8 10 10 7 8 9
85 83 85 78 71 68 69 71 68 62 52 39 26 18 15 13 12 13 12 12 18 22 21 24 26 25 23 23 25 25 27 29 34 37 30 22 19 20 22 23 23 17 13 17 14 10 12 12 12 13 12 12 15 20 26 29 23 11 9 12 14 13 10 7 6 5 6 6 6 6 6 7 7 7 8 9 11 12 13 14 14 12 11 10 8 7 7 7 6 7 7 8 13 12 8 7 8
83 83 79 72 68 62 64 70 67 62 54 39 23 14 12 11 11 12 12 13 19 24 24 21 19 20 21 23 28 30 28 25 26 25 19 16 16 18 22 22 19 13 14 16 12 10 11 11 12 11 11 10 12 16 20 24 21 11 8 12 14 13 10 8 6 5 6 6 6 6 7 7 7 8 9 11 13 14 14 15 14 14 13 12 10 8 7 7 6 7 6 5 8 8 6 7 8
81 77 75 72 66 62 68 72 67 61 55 42 26 17 14 14 18 17 14 15 20 28 34 32 22 18 19 24 34 39 36 29 24 22 21 18 14 15 18 17 14 12 15 15 11 11 11 11 12 11 10 9 9 11 14 18 18 12 8 9 11 11 9 8 6 5 6 7 7 7 7 7 8 8 10 14 16 16 15 16 16 16 16 16 16 12 10 8 7 7 6 9 17 16 12 8 7
73 70 73 73 62 63 73 75 69 62 59 50 36 27 22 26 33 27 19 18 22 28 37 41 31 19 19 26 35 42 43 38 31 25 26 22 13 12 14 12 11 12 14 13 11 11 11 11 12 11 10 8 8 8 10 14 15 12 7 6 7 7 8 7 6 6 6 7 7 8 8 8 9 10 13 16 17 17 15 15 13 13 13 13 14 13 11 10 8 7 7 13 22 22 16 8 6
64 62 68 69 57 64 78 79 73 66 65 62 50 39 31 37 50 46 34 28 26 26 30 36 32 19 16 23 31 40 43 40 33 25 23 20 12 10 10 7 10 13 12 11 12 13 13 13 12 12 11 8 8 7 9 12 13 11 6 5 5 6 7 7 6 6 7 8 9 9 10 10 11 13 16 17 17 15 12 10 9 9 9 8 9 8 9 9 9 9 9 9 9 11 12 6 5
57 56 63 66 59 70 83 80 74 69 67 67 60 51 43 48 60 61 53 45 36 30 29 34 33 19 12 19 26 33 40 39 32 27 22 16 11 10 9 6 9 13 12 11 13 15 17 17 15 14 11 8 7 7 8 9 10 9 7 5 5 6 6 7 7 8 9 11 12 12 11 11 13 14 15 14 12 10 8 8 8 8 7 6 6 6 6 7 8 8 9 9 6 6 8 6 5
52 52 59 65 63 74 84 77 73 72 67 65 63 58 56 60 65 65 61 58 51 41 38 45 50 35 14 15 23 28 37 40 34 30 24 14 10 11 9 7 10 14 11 11 15 17 21 21 18 14 10 7 6 6 6 7 8 8 7 5 5 6 6 7 8 10 12 14 16 15 12 12 13 14 12 9 7 7 7 7 6 6 5 5 4 5 5 6 7 6 8 9 7 5 6 6 6
44 47 55 60 61 77 88 78 73 74 65 62 64 60 61 67 68 66 62 61 59 52 50 59 73 63 31 14 19 29 36 38 31 28 22 14 12 13 10 7 11 15 11 11 15 19 23 22 18 13 8 6 6 7 6 5 6 7 7 6 6 7 7 9 9 11 15 17 20 19 14 12 12 11 8 6 7 7 7 6 5 5 5 5 5 5 6 7 7 7 7 8 7 7 6 5 6
32 35 49 55 61 83 90 77 73 73 62 59 63 61 64 69 67 67 66 65 64 60 60 70 85 86 61 30 17 24 35 33 24 21 17 13 14 13 10 9 11 15 11 10 14 17 23 23 19 14 8 6 6 6 7 6 6 6 7 7 6 8 9 10 10 13 17 19 23 21 15 12 10 8 6 7 7 7 7 6 6 6 6 6 7 7 8 8 8 7 7 7 8 8 6 4 5
19 23 40 51 65 85 85 75 74 72 60 56 60 61 67 71 68 69 70 68 66 65 68 76 88 93 83 61 33 21 28 30 19 15 13 12 15 12 9 10 12 14 11 9 12 15 21 23 20 15 10 7 6 6 6 6 6 6 7 8 7 8 9 10 11 14 17 20 22 20 14 11 9 7 7 8 8 7 7 7 7 7 7 8 8 8 8 7 7 7 8 8 8 8 6 4 5
18 21 35 48 65 81 79 73 74 71 59 54 60 63 68 71 70 71 71 72 71 73 76 77 86 93 91 84 60 28 20 26 21 13 13 13 15 13 9 10 12 13 11 10 12 14 19 22 19 15 12 9 7 7 6 6 6 6 6 7 7 7 8 9 11 14 15 17 19 16 12 10 8 8 8 8 7 8 7 8 9 9 9 9 9 8 7 6 6 7 9 9 9 8 6 5 4
25 27 37 49 66 78 78 74 74 73 59 51 61 67 69 70 70 72 74 76 74 72 77 77 81 89 92 90 75 44 21 21 22 15 13 14 15 14 10 10 12 12 10 10 14 15 17 21 18 14 13 11 9 8 7 6 6 6 6 6 6 6 7 8 10 12 12 12 14 12 10 9 8 8 8 7 7 7 8 10 10 10 9 9 9 8 7 5 5 7 9 9 8 6 5 5 5
26 29 34 43 60 73 78 75 75 77 61 47 58 67 70 71 70 72 71 70 68 67 74 79 81 87 94 91 81 65 37 21 21 15 10 13 15 14 11 9 11 11 9 11 16 17 18 19 15 11 12 12 10 9 8 7 6 5 5 5 6 5 6 8 9 10 9 8 9 9 10 10 9 8 7 7 7 7 9 12 12 11 9 10 12 11 8 6 5 5 6 6 6 5 5 5 5
20 24 26 33 47 62 76 78 80 89 72 48 52 63 70 72 69 68 65 63 65 68 70 73 81 91 95 91 83 77 52 24 18 13 7 10 13 13 11 10 12 12 9 11 16 17 16 15 9 7 9 10 9 8 8 8 7 6 6 5 5 5 6 7 7 8 7 6 8 8 9 9 8 7 6 6 6 7 11 13 13 11 11 15 18 15 12 11 10 9 8 8 8 8 9 9 9
11 15 18 23 33 50 70 78 83 95 84 57 52 58 65 71 68 62 63 68 69 69 69 66 71 84 92 92 88 84 64 30 16 13 9 9 11 11 10 10 12 14 10 9 13 13 12 9 5 4 6 6 6 6 6 6 6 6 6 5 5 5 5 6 5 6 6 6 7 8 8 8 7 6 6 6 6 8 12 15 15 12 14 22 24 19 18 17 17 17 16 16 16 17 17 17 19
5 8 11 14 25 42 59 71 77 85 82 63 51 53 60 67 67 62 67 74 72 70 69 60 55 69 86 90 87 86 73 40 18 15 10 8 11 10 10 10 12 14 12 9 10 11 10 7 4 4 4 4 4 4 3 3 3 4 4 5 5 5 5 5 5 5 5 5 6 6 6 6 6 5 5 6 6 8 13 17 17 15 18 26 26 22 21 22 23 23 21 22 22 24 27 32 38
3 4 7 10 21 35 49 66 72 73 74 64 51 48 54 63 63 64 72 72 71 72 67 57 51 57 69 75 81 86 77 47 22 16 10 6 10 10 8 11 12 14 13 9 8 10 9 7 5 5 4 4 4 3 3 3 3 3 3 4 4 5 5 5 4 5 5 5 6 6 6 5 5 5 5 6 6 7 13 19 20 19 21 26 26 25 24 25 25 23 21 22 25 31 39 47 50
3 2 5 7 15 28 41 59 70 69 67 64 57 46 44 58 60 62 73 69 68 73 66 64 61 53 53 61 73 84 79 54 26 16 12 5 6 9 8 9 12 14 13 10 8 8 7 6 5 5 4 4 3 3 3 3 3 3 3 3 3 4 4 4 4 4 5 6 6 6 6 6 6 5 5 6 6 6 11 18 21 22 24 26 25 25 25 24 22 20 19 24 33 42 49 52 52
3 2 4 5 9 21 32 47 63 66 61 60 59 42 30 45 55 56 66 65 66 69 66 72 68 55 52 52 57 69 74 62 35 18 14 7 4 7 9 8 10 13 13 11 8 6 5 5 4 4 4 4 3 3 3 3 4 4 3 3 3 3 3 4 4 4 5 5 6 6 6 6 6 5 5 6 6 6 8 14 21 24 26 26 25 23 21 20 19 19 24 33 42 48 50 51 50
3 2 3 4 6 14 23 37 49 56 59 56 51 38 20 25 43 52 57 60 63 65 68 74 70 62 60 54 51 56 63 63 46 25 15 10 4 4 7 8 8 11 11 9 7 5 4 4 4 4 4 4 3 3 3 3 3 3 3 3 3 3 3 3 4 4 5 5 5 6 6 6 5 5 5 5 6 6 6 9 17 24 26 26 25 21 17 18 19 24 34 42 47 50 50 47 43
3 3 3 4 5 8 16 28 37 43 47 39 33 31 17 11 29 46 52 56 57 61 70 73 70 70 69 62 56 54 56 58 51 34 19 11 7 3 4 7 7 8 8 7 6 4 3 3 3 3 3 3 3 3 3 3 3 3 3 3 3 3 3 3 4 4 4 4 5 6 6 6 5 5 5 5 6 6 6 7 13 23 26 26 24 19 17 19 24 33 43 46 45 44 40 35 29
2 3 3 4 4 6 10 17 26 30 24 15 17 24 15 4 17 37 45 48 52 60 70 72 73 74 70 65 59 54 52 51 51 43 25 14 10 4 2 3 5 5 4 5 5 3 2 2 2 2 2 2 2 2 2 2 3 3 3 3 3 3 3 3 4 4 4 4 5 5 5 5 5 5 5 5 6 6 7 6 11 20 25 25 23 19 19 22 29 40 45 41 35 29 24 20 18
3 3 3 4 3 4 6 9 16 18 8 3 11 19 15 4 9 25 34 39 50 62 69 72 75 75 72 68 59 53 50 49 53 47 30 18 13 7 3 2 3 3 3 3 3 2 2 2 2 2 2 2 2 2 3 3 3 3 3 3 3 3 3 4 4 4 4 4 5 5 5 5 5 5 5 5 6 7 8 8 10 17 23 25 21 18 19 23 32 42 41 33 24 17 15 16 17
2 3 3 4 3 3 4 5 8 8 2 1 7 14 15 6 5 19 28 36 49 60 66 73 77 77 75 71 62 57 56 53 52 49 38 26 17 11 6 3 2 2 2 2 2 2 2 2 2 2 2 2 2 3 3 3 3 3 3 3 3 3 3 3 4 4 4 4 4 4 5 5 5 5 5 5 6 8 10 10 10 14 21 24 20 18 19 23 33 40 35 25 16 14 17 21 24
2 3 2 2 3 3 2 3 3 2 2 2 4 9 10 4 5 17 26 33 44 54 63 72 77 77 75 71 67 66 66 58 50 51 50 40 29 21 13 7 5 3 2 2 1 1 2 2 2 2 2 3 3 3 3 3 4 3 3 3 3 3 3 3 4 4 4 4 4 4 5 5 5 5 5 5 6 9 12 12 11 14 21 23 19 17 19 23 33 38 29 18 14 18 24 27 28
3 2 3 2 2 2 2 2 2 2 2 2 3 7 6 4 8 17 23 28 37 49 60 69 74 76 76 75 70 65 64 59 51 51 53 50 42 33 23 14 9 5 3 3 2 2 2 2 2 2 3 3 3 4 4 4 4 4 4 4 3 3 3 3 4 4 4 4 4 4 5 5 5 5 5 6 7 10 14 15 14 15 20 22 18 17 19 24 34 35 23 15 18 24 28 28 28
4 3 3 2 2 2 2 2 2 2 2 2 3 4 4 4 9 17 22 25 30 39 53 66 71 74 77 75 67 57 53 52 49 45 44 49 50 44 35 25 17 12 8 5 5 5 4 3 3 3 3 4 4 4 5 5 5 6 6 6 6 5 5 4 4 4 4 4 4 4 5 5 5 5 5 5 7 10 14 17 17 16 18 20 19 18 19 26 35 30 18 15 22 28 28 27 29
5 4 4 3 3 3 2 3 2 2 2 2 3 2 2 3 5 10 16 22 27 32 45 61 68 72 75 71 64 57 49 45 46 40 35 42 48 46 40 32 26 23 18 15 16 17 16 13 8 6 5 4 4 4 5 5 5 6 7 9 11 13 13 10 7 5 4 4 4 4 5 5 5 5 5 5 7 11 15 18 19 18 18 18 19 18 20 29 34 25 15 18 25 28 27 27 30
6 5 4 4 3 3 3 3 3 3 3 2 3 2 2 2 2 4 7 13 20 27 40 55 63 67 70 67 62 59 53 45 41 38 37 41 42 43 43 39 34 31 27 26 28 29 30 28 25 21 16 13 10 8 8 9 8 8 8 10 15 19 22 21 17 12 9 7 6 5 5 5 5 5 6 6 7 11 16 19 21 21 19 18 18 17 21 31 33 21 14 20 26 27 27 29 33
8 7 6 5 4 4 3 3 3 3 3 3 3 3 2 2 2 3 3 6 11 19 32 49 60 64 66 66 64 61 57 51 45 47 51 49 41 37 39 40 37 36 35 35 34 33 33 34 34 33 29 25 22 21 21 22 22 20 16 14 17 21 25 28 27 23 19 16 11 8 6 5 6 6 7 6 7 11 17 20 22 23 22 19 17 16 21 32 32 18 15 23 27 28 29 32 36
9 8 8 6 5 4 4 4 4 4 4 3 3 3 3 2 2 3 3 4 6 10 19 33 46 52 54 58 64 64 61 57 55 59 64 62 55 47 42 41 43 44 44 43 40 38 37 38 38 38 35 30 27 29 32 34 35 32 28 25 24 27 29 31 33 31 29 24 18 13 10 8 8 7 7 7 7 10 16 21 23 25 24 21 18 15 20 32 31 17 16 25 28 30 32 35 36
10 9 9 8 7 6 5 5 5 5 4 4 4 3 3 3 3 3 3 4 5 6 10 16 24 32 38 47 58 64 65 63 61 62 66 69 70 66 61 58 57 56 55 53 49 45 45 46 44 43 40 32 29 34 39 40 40 38 35 33 31 31 33 35 37 38 36 31 24 19 16 13 13 11 8 7 7 9 15 20 24 26 26 24 20 16 19 32 31 17 16 25 29 31 34 36 36
11 10 10 9 8 8 7 7 6 6 5 4 4 4 3 3 3 3 3 3 3 4 6 9 12 17 26 36 45 53 59 63 61 57 59 67 71 71 71 71 69 66 63 58 53 50 51 52 50 49 46 37 34 40 44 43 40 37 33 29 27 26 27 30 34 38 41 40 34 27 22 18 17 17 13 8 6 8 14 20 24 28 28 25 22 17 20 31 31 18 16 26 31 32 35 38 36
12 12 11 10 10 9 8 8 7 7 6 6 5 4 3 3 3 3 3 3 3 3 4 6 6 7 13 22 30 36 43 49 48 42 48 63 71 71 71 73 73 73 67 59 55 54 54 53 52 51 49 42 39 44 47 44 38 33 28 26 26 25 23 23 25 31 38 42 41 36 30 24 21 21 19 13 8 8 14 22 26 29 30 28 24 19 20 31 31 19 17 27 34 35 37 39 36
Wind_Speed
10 10 11 12 12 12 11 11 12 12 11 11 11 10 10 9 9 8 8 8 8 8 8 8 9 10 11 12 13 13 14 13 12 11 12 13 13 12 10 12 12 9 7 6 5 5 7 7 6 7 7 8 8 8 9 8 10 12 12 11 11 10 10 10 9 10 10 10 10 10 9 9 8 7 7 7 8 9 10 10 10 10 11 11 11 11 11 10 9 9 10 9 9 8 7 7 6
10 10 10 11 10 10 10 10 11 11 11 11 11 10 10 9 9 9 9 9 9 10 10 9 10 12 13 13 13 13 13 11 11 10 11 12 12 12 9 9 10 8 5 5 5 6 8 8 7 7 7 6 6 7 7 7 9 11 10 10 10 10 10 9 9 10 10 10 10 9 9 8 8 7 8 9 9 9 10 10 10 10 10 11 10 10 10 9 8 8 8 8 8 7 7 7 6
9 10 10 11 11 10 11 10 11 10 10 11 11 10 10 10 10 10 10 11 11 11 12 11 11 13 14 13 12 11 10 9 9 9 9 9 10 11 9 8 8 6 4 5 6 7 8 9 8 7 6 6 6 6 6 7 9 9 9 9 9 9 9 9 10 10 10 10 9 9 8 8 8 8 9 10 10 9 9 9 9 9 9 9 9 10 10 9 8 7 7 7 7 7 7 7 6
9 10 10 11 12 11 10 10 10 10 10 10 10 10 10 10 10 10 11 12 13 12 13 12 12 14 14 12 11 9 8 7 7 8 8 8 8 10 10 8 7 5 4 5 5 6 7 8 8 7 6 6 6 6 6 7 8 8 8 8 9 9 9 9 10 10 10 9 9 9 8 8 9 10 10 10 10 10 9 8 7 7 7 8 8 9 9 9 8 7 7 6 6 6 7 7 7
8 11 11 11 11 11 10 9 10 11 11 11 10 10 10 11 10 10 11 12 14 14 14 13 13 14 13 12 10 8 7 6 5 6 7 7 6 7 9 8 6 5 4 5 5 6 6 7 7 6 6 6 6 5 5 6 7 7 7 8 9 9 9 9 10 10 9 9 9 9 9 10 10 10 11 11 11 10 10 9 8 6 6 6 7 7 8 8 8 8 7 7 6 6 7 7 7
7 9 10 10 10 10 9 8 9 10 11 11 11 10 10 10 10 10 10 12 14 16 16 16 15 13 12 11 10 7 5 4 3 3 4 5 6 5 6 7 6 6 5 5 5 5 6 6 6 5 5 5 5 5 5 6 7 7 7 8 9 9 9 9 10 10 9 10 10 10 10 10 11 11 11 11 11 11 10 9 8 6 6 6 6 7 8 8 8 8 8 7 7 6 6 7 7
6 6 6 7 9 9 8 7 8 8 9 10 10 10 9 9 9 9 10 11 13 15 17 17 15 13 11 10 9 8 6 4 2 2 2 4 5 5 4 6 7 6 6 5 5 4 5 5 5 4 4 4 4 4 5 6 7 7 8 9 9 9 9 10 10 10 10 11 11 11 10 11 11 11 11 11 11 11 10 9 8 7 7 7 7 7 7 8 9 9 8 8 7 6 6 6 6
6 5 5 7 7 7 6 5 6 6 7 8 8 8 8 8 8 8 9 10 10 12 14 15 14 11 9 9 9 9 8 6 3 1 1 3 4 5 4 5 6 6 5 5 4 4 4 4 3 3 4 4 4 4 6 7 7 7 8 9 9 9 10 10 11 10 11 11 11 11 11 11 10 10 10 11 11 11 10 9 8 8 8 9 9 9 9 9 10 10 9 8 7 7 6 6 6
7 6 6 8 7 6 6 4 4 5 5 6 6 6 6 7 7 7 8 9 9 11 11 12 12 11 9 8 9 9 8 7 5 2 1 2 3 4 5 4 5 5 5 4 4 3 3 2 2 3 4 4 5 6 7 7 7 8 9 10 10 10 10 11 11 11 12 12 11 11 11 10 10 10 11 12 12 12 11 10 10 10 10 10 11 10 11 11 11 10 9 8 8 7 7 6 6
8 7 7 8 7 6 5 4 3 3 4 4 5 5 4 5 5 5 6 8 8 9 10 11 11 11 9 8 9 9 9 8 6 4 2 2 2 4 5 5 4 4 4 3 3 2 2 2 2 3 4 5 6 7 7 7 8 9 10 10 10 10 11 12 12 12 12 12 11 11 11 11 11 12 13 14 14 13 12 12 12 12 12 12 13 13 13 12 11 10 9 9 8 7 7 6 6
8 8 8 8 7 5 6 5 3 3 3 3 4 4 3 3 4 5 6 7 7 8 9 10 9 10 10 8 8 9 9 9 7 5 4 3 2 4 5 5 4 4 4 3 1 1 2 2 3 3 4 6 7 8 7 8 9 10 11 11 10 11 12 12 12 13 13 12 11 11 11 12 13 14 15 15 14 14 14 14 14 14 14 14 14 14 14 13 12 11 11 11 10 9 8 7 6
8 8 8 7 6 5 6 5 3 3 4 4 4 3 3 3 4 6 7 7 7 7 8 9 9 9 9 8 8 9 10 10 9 6 5 3 2 3 4 3 4 4 4 3 1 1 2 3 3 4 5 6 7 8 7 8 9 10 11 11 11 12 12 13 14 14 13 12 12 12 13 14 15 15 16 16 15 15 15 16 16 16 16 16 16 16 16 15 15 14 14 14 13 12 11 9 8
9 9 8 8 7 7 7 5 3 2 3 5 5 5 4 4 5 6 7 7 8 8 8 8 9 7 7 6 6 8 9 10 10 7 4 3 2 3 3 3 3 4 3 2 2 1 2 2 3 4 5 7 7 7 7 8 10 11 12 12 12 13 13 14 14 14 14 14 14 14 15 16 16 17 17 18 17 17 17 17 18 18 18 19 19 19 19 18 18 17 17 16 16 15 14 13 12
11 10 9 10 11 10 8 6 4 2 3 5 6 7 6 6 7 6 6 7 7 8 9 9 10 9 8 6 5 6 8 10 11 9 5 3 2 3 2 3 3 3 3 2 1 1 2 2 3 4 5 7 7 7 8 9 10 11 12 13 13 13 14 14 14 15 15 15 15 15 16 16 17 18 19 20 20 20 19 19 19 20 20 21 21 21 20 20 20 19 18 17 17 17 16 16 16
12 11 9 11 12 10 8 6 5 4 4 5 6 8 8 8 9 8 7 7 7 7 8 9 9 10 10 9 6 6 6 8 10 10 6 4 3 3 2 2 2 2 3 2 0 1 2 2 3 4 5 7 7 7 8 10 11 12 13 13 14 14 14 14 15 16 17 16 16 16 16 17 18 19 20 21 21 21 20 20 20 21 21 22 21 21 21 21 20 19 19 19 19 19 18 18 18
12 11 9 10 11 9 8 7 6 5 5 6 7 8 9 10 10 9 8 8 7 7 7 8 8 8 9 10 9 8 6 7 9 10 8 6 5 4 3 1 0 2 3 2 0 2 2 2 3 5 5 6 7 8 9 11 12 13 13 14 14 14 15 15 17 17 17 17 16 16 17 18 19 20 21 21 21 20 20 20 20 21 21 21 20 20 20 20 19 19 19 19 19 19 19 19 19
11 10 9 9 10 9 7 6 5 5 5 7 8 9 10 11 10 9 9 9 9 7 7 7 7 7 8 9 10 10 7 6 7 9 8 7 6 5 4 2 2 2 3 2 1 3 3 3 4 5 6 7 7 9 10 12 13 13 14 14 15 15 16 17 18 18 18 17 16 16 18 19 20 20 20 20 20 19 19 19 19 19 19 19 19 18 18 18 18 17 17 17 17 18 18 18 18
11 10 9 10 9 8 8 7 7 6 6 7 8 9 10 10 9 9 10 10 9 8 8 7 6 6 6 7 9 10 9 6 6 7 7 7 7 5 4 3 2 2 3 1 2 3 4 4 5 6 6 7 8 10 12 13 13 13 14 15 16 16 17 18 18 18 18 17 17 17 18 19 19 19 19 19 18 18 17 17 17 17 17 18 18 17 17 17 17 16 15 15 15 16 16 16 16
11 10 11 12 10 8 8 7 7 8 7 8 8 9 10 11 10 8 10 10 9 8 7 7 6 5 4 5 6 8 10 8 6 6 6 6 6 5 4 3 3 2 2 1 4 4 5 5 6 7 7 8 9 11 13 13 14 14 15 16 17 18 19 19 19 18 18 18 17 17 17 18 18 18 17 17 17 16 16 17 17 17 17 17 17 16 16 16 16 15 15 15 15 15 15 15 15
11 11 13 14 11 9 8 6 7 8 8 8 8 7 9 11 11 10 9 10 9 8 6 6 6 5 3 3 4 6 9 9 7 7 6 6 6 5 5 4 3 2 2 3 5 5 6 7 8 8 8 8 10 12 13 14 14 15 16 17 18 19 19 19 19 19 18 18 17 17 17 17 17 17 16 16 16 16 16 17 17 17 17 17 16 16 16 16 15 15 15 15 14 14 14 14 14
11 12 14 14 12 10 9 7 7 8 8 8 7 7 8 10 11 11 9 9 9 8 7 5 5 5 3 3 4 6 7 9 9 8 8 8 7 7 6 6 5 4 3 5 6 6 7 9 9 9 9 9 10 12 14 14 15 15 16 17 18 19 19 19 19 19 19 18 17 16 16 16 16 15 15 14 15 15 16 17 17 17 17 17 16 16 15 15 15 15 15 14 14 14 13 13 14
12 14 14 14 13 11 11 9 9 8 8 8 7 8 8 9 11 12 11 9 9 8 7 5 5 4 3 2 4 6 7 9 10 10 10 9 9 8 8 8 6 5 5 6 7 7 8 10 10 10 10 11 11 13 14 15 15 15 16 17 18 19 19 20 20 19 19 18 16 15 15 14 14 14 14 13 13 14 15 16 16 17 17 17 16 16 15 15 14 14 14 14 14 13 13 13 13
15 16 14 16 16 14 13 11 9 7 7 8 8 8 8 10 12 13 12 12 10 8 7 6 5 4 3 2 4 5 7 9 9 10 10 10 10 10 10 8 6 5 6 8 8 8 9 10 11 11 11 11 13 14 15 15 15 15 16 17 18 18 19 20 20 19 18 17 16 15 14 13 13 13 13 13 13 13 14 15 16 16 16 16 16 15 15 15 14 13 13 13 13 13 13 13 13
18 17 15 17 17 17 15 12 10 8 6 8 8 8 8 10 12 13 14 15 13 9 8 6 5 4 2 2 3 4 6 8 9 9 8 8 7 8 8 7 6 6 8 9 9 9 10 12 12 12 12 12 13 15 15 16 15 15 16 18 18 18 19 19 19 19 18 16 15 14 13 12 12 12 12 12 12 13 14 14 15 15 15 15 15 14 14 14 13 13 12 11 12 13 13 13 13
19 18 18 18 18 17 14 11 10 8 6 7 7 6 7 9 12 13 13 15 15 12 8 6 5 3 1 1 3 4 4 6 8 8 8 7 7 7 6 7 8 8 9 10 10 11 12 12 13 12 12 12 13 15 16 16 15 15 16 17 18 18 19 19 19 18 17 16 14 13 12 11 11 11 11 12 12 12 13 13 14 14 14 14 14 14 13 13 13 12 12 10 10 11 12 13 13
20 21 20 19 17 13 11 10 9 7 6 6 7 6 6 8 11 12 12 13 15 14 10 7 5 3 2 1 3 4 4 5 6 6 7 7 8 8 9 10 10 10 11 11 11 12 13 13 13 12 12 13 14 14 15 16 15 16 17 17 18 18 18 18 17 17 16 15 13 12 11 11 11 11 10 11 11 11 12 12 13 13 13 13 13 13 12 12 12 11 11 10 10 9 9 10 12
23 23 21 19 16 11 10 10 9 7 5 6 6 5 5 7 9 10 11 12 14 15 13 10 7 5 3 1 3 4 3 4 4 5 6 7 9 10 11 11 11 12 12 11 12 12 13 14 14 12 12 13 13 14 14 15 15 16 17 18 18 18 18 17 16 15 14 14 13 12 11 10 10 10 10 9 10 10 11 11 11 12 12 12 11 11 10 10 10 9 8 9 9 9 8 8 10
26 24 22 20 17 12 11 10 10 5 3 5 6 6 8 9 8 8 10 12 13 15 14 12 9 6 4 2 2 4 4 4 5 7 8 9 10 10 12 13 13 14 14 13 13 13 13 14 14 13 12 12 13 14 14 15 15 16 18 18 18 18 17 16 15 14 14 13 12 11 10 10 10 9 9 8 9 9 9 10 10 10 10 10 10 9 8 8 7 7 6 7 7 7 7 7 7
27 25 23 21 17 14 13 12 11 5 1 5 6 9 11 12 11 9 10 11 13 15 15 14 11 8 5 3 1 3 4 5 7 9 9 10 9 10 11 13 16 17 16 15 14 13 13 14 14 13 13 13 13 14 15 15 16 17 18 19 18 18 17 16 15 14 13 12 11 11 10 10 9 9 9 8 8 8 8 9 9 9 9 10 9 8 7 6 5 5 5 6 5 5 6 6 5
27 25 23 21 18 15 15 13 12 7 3 4 6 12 13 14 14 12 12 12 13 14 15 15 14 10 7 4 1 2 4 5 7 8 8 8 9 9 10 13 17 17 16 16 15 14 13 13 13 13 13 13 14 14 15 16 17 18 18 19 18 17 16 15 15 14 13 12 11 10 10 9 9 9 9 9 8 8 8 8 8 9 9 9 8 8 7 6 5 4 4 4 4 3 4 4 3
27 24 23 22 18 17 17 15 13 10 6 4 7 15 16 16 16 15 14 14 13 14 15 16 15 12 9 6 3 0 2 4 6 7 8 8 9 9 10 13 16 16 16 16 16 15 14 13 13 13 13 14 14 15 16 17 18 18 18 18 18 17 16 15 14 14 13 12 11 10 10 9 9 9 9 9 8 8 7 7 8 8 8 7 7 7 6 5 5 4 3 2 3 3 3 3 2
25 23 23 22 18 18 18 16 14 12 8 5 11 18 18 17 17 15 15 15 14 14 15 16 16 14 11 7 5 2 1 2 4 7 9 10 10 10 11 13 16 16 17 17 17 16 14 13 12 13 14 14 15 15 16 16 17 17 17 17 17 16 15 14 14 13 12 11 11 11 10 10 10 10 9 8 8 7 6 6 6 6 7 7 6 6 5 5 5 4 3 1 2 2 3 3 1
23 21 21 20 18 20 20 18 16 15 10 9 17 21 19 18 17 16 16 15 15 14 15 15 15 14 12 9 6 4 3 2 3 7 10 11 12 12 12 14 17 17 17 17 16 16 14 13 12 13 14 15 15 15 16 16 16 16 16 15 15 15 14 13 13 12 12 11 11 11 11 11 10 10 9 8 7 5 5 5 6 6 7 7 7 6 5 5 5 4 4 2 1 1 1 2 1
18 16 18 19 19 22 22 19 17 17 12 12 20 23 20 19 18 17 17 16 15 14 14 14 14 13 11 9 7 5 4 3 2 7 10 12 13 14 14 15 17 17 16 16 17 16 15 13 13 13 14 15 15 15 16 15 15 15 14 14 14 13 13 12 12 11 11 11 11 11 11 11 10 10 9 7 6 4 4 4 5 6 6 6 6 6 6 6 5 5 4 3 3 2 2 1 1
16 15 16 19 21 23 21 19 19 19 14 14 21 24 22 21 20 19 18 17 16 14 13 13 13 13 11 9 7 5 4 3 1 6 9 11 13 14 15 16 17 17 16 16 16 15 14 13 12 13 14 15 16 16 15 15 15 14 14 14 13 13 12 12 11 11 10 10 11 11 12 11 11 10 8 6 4 3 3 4 5 5 6 6 6 6 6 7 6 5 4 4 4 4 3 2 1
19 18 19 21 23 24 22 21 21 20 16 15 21 25 24 23 23 21 20 19 17 16 15 13 12 12 10 9 7 5 4 3 1 4 8 10 12 14 16 17 18 17 17 16 15 14 13 13 12 13 13 14 15 15 16 16 15 15 14 14 13 12 12 11 10 10 9 10 11 11 11 11 10 9 7 5 3 2 3 4 5 5 5 5 5 6 7 6 6 5 4 5 5 4 4 3 3
22 21 21 22 24 25 24 23 22 23 19 15 20 25 25 25 25 24 22 21 20 18 17 14 12 11 10 8 6 4 3 2 0 4 8 10 12 14 15 17 18 18 17 15 14 13 13 13 13 14 14 13 14 15 16 16 16 15 14 13 12 12 11 10 10 9 10 10 11 11 11 10 9 8 6 4 2 2 3 4 4 4 4 5 6 7 7 6 6 5 5 5 4 4 4 4 4
25 23 21 21 23 24 25 26 23 25 23 15 18 26 27 27 27 26 23 21 20 19 18 17 15 12 10 8 5 4 2 1 2 4 8 10 13 14 16 17 17 17 17 15 14 14 14 14 14 15 14 14 14 15 15 15 14 14 13 12 12 12 11 10 10 10 10 11 11 12 11 10 9 7 5 3 1 2 3 4 4 4 4 5 6 6 6 6 6 6 6 5 4 4 5 5 5
27 26 23 21 21 23 26 27 26 28 28 21 20 27 30 28 28 26 23 22 21 20 20 20 20 17 14 11 5 3 1 1 3 4 6 9 12 15 17 17 18 18 18 17 16 15 14 14 14 14 15 15 14 14 13 13 13 12 12 12 11 11 10 10 10 11 12 12 12 12 11 10 8 6 4 2 1 2 2 3 3 4 4 5 6 5 5 5 5 5 5 5 5 5 6 6 6
26 27 25 21 19 23 27 29 29 31 32 28 24 27 32 30 28 27 24 24 22 21 21 21 22 22 19 16 11 6 2 2 3 4 5 8 11 13 17 19 20 19 18 17 15 14 14 14 14 15 15 15 14 13 13 12 11 11 11 11 11 10 10 11 12 13 13 13 12 12 11 9 7 5 3 2 2 2 1 2 3 3 4 5 5 4 3 3 3 3 4 5 5 5 6 6 7
25 26 26 22 21 23 27 30 31 33 35 32 27 28 33 32 28 27 26 25 24 22 21 20 19 20 20 19 15 10 4 3 4 5 5 8 10 13 17 20 20 19 18 17 15 14 14 15 16 16 16 15 14 13 12 11 10 10 10 11 12 12 12 12 13 13 12 12 11 10 8 7 6 4 3 1 1 2 1 1 3 3 3 4 4 3 2 2 3 3 4 5 5 5 6 7 8
26 27 25 25 26 25 28 30 32 35 37 34 31 31 32 34 31 30 30 27 25 23 21 19 18 18 18 18 18 14 7 4 4 5 6 8 10 12 14 17 18 18 17 17 17 17 17 17 17 17 16 15 14 13 12 11 10 10 10 11 12 12 11 11 11 12 12 11 10 9 8 8 6 5 3 1 1 2 2 1 2 2 3 3 3 3 3 3 3 4 5 5 6 7 7 8 9
28 27 26 29 30 28 28 30 33 37 37 35 35 35 31 35 36 33 32 30 27 25 23 22 19 17 16 17 18 17 12 7 5 5 6 8 10 12 13 15 16 17 18 18 18 18 18 17 17 16 15 14 13 12 11 11 10 10 10 10 10 10 11 11 11 12 12 11 10 10 10 9 8 6 4 2 1 2 2 2 2 2 2 3 4 4 3 3 3 4 5 6 7 7 7 8 9
24 25 27 30 30 30 31 32 36 38 38 38 38 37 32 32 38 36 34 32 29 27 26 23 20 18 16 16 17 17 15 10 7 6 7 9 11 13 14 16 17 18 18 18 18 17 17 17 16 16 15 14 13 11 11 11 10 10 10 9 9 10 11 12 12 12 11 12 12 11 10 10 8 6 4 3 3 3 3 3 2 2 2 3 4 5 3 2 2 3 5 6 7 8 8 9 10
20 23 28 31 32 33 35 37 38 39 42 41 38 38 34 26 34 38 36 35 31 28 27 24 22 20 18 17 16 17 17 14 10 8 7 8 11 14 15 17 19 19 18 17 17 17 17 17 17 17 15 14 13 12 12 11 11 11 10 9 9 10 10 11 12 13 13 13 13 12 11 10 9 7 5 5 4 4 4 4 3 2 3 4 5 5 3 2 1 3 4 6 8 9 10 10 10
20 23 29 33 33 35 39 40 40 41 43 40 36 38 35 22 28 39 40 36 31 27 26 25 24 22 20 19 18 18 18 17 14 11 9 9 11 14 16 17 19 19 19 19 19 18 17 16 16 16 15 14 14 13 13 13 12 11 10 10 11 11 10 10 12 13 13 13 13 13 12 11 10 8 6 6 6 6 6 6 5 3 3 5 6 6 4 2 1 2 4 7 9 9 10 10 10
25 26 30 34 36 37 40 41 42 43 40 36 34 37 37 25 25 36 38 33 29 26 26 27 26 24 22 20 19 18 19 18 16 14 12 11 11 12 15 16 17 17 17 18 18 17 16 16 16 15 15 14 13 13 13 13 12 12 11 12 12 12 10 10 12 12 13 13 13 13 12 11 10 8 8 8 8 7 7 7 6 5 4 5 7 6 5 3 2 2 5 7 8 9 9 9 10
28 29 31 35 37 38 40 40 42 40 33 30 30 36 39 25 19 30 33 29 30 29 27 28 27 25 24 22 20 18 18 19 18 17 14 13 11 11 12 15 15 15 14 14 15 16 16 16 16 16 15 14 13 13 13 12 12 11 12 13 13 12 11 11 12 13 13 13 13 13 13 12 11 10 10 10 9 8 8 9 8 7 6 6 7 7 6 4 3 2 4 6 7 8 8 9 8
29 30 33 35 36 37 37 36 35 31 25 22 22 31 32 16 11 22 27 27 29 29 28 29 28 27 26 24 22 20 18 19 20 18 16 14 12 11 12 14 15 15 15 15 15 15 16 16 17 17 16 16 15 14 13 13 12 12 12 13 13 12 11 12 13 13 13 13 13 14 14 14 13 12 12 11 9 8 9 9 9 8 7 7 7 7 6 5 3 2 3 5 7 7 8 8 8
28 29 32 34 34 33 30 28 28 27 26 21 19 25 22 7 8 18 24 25 25 27 29 29 29 29 28 26 24 23 21 20 21 20 19 17 15 13 13 14 15 15 16 16 16 15 15 15 16 17 17 17 16 15 14 13 13 13 13 14 14 12 11 12 14 14 14 14 14 14 15 15 15 13 13 12 10 9 9 10 10 9 9 8 8 7 7 6 4 2 2 4 6 6 7 7 8
28 29 32 34 34 31 27 25 25 26 27 24 21 20 13 7 10 17 22 24 23 25 28 30 31 30 30 29 27 25 23 21 22 22 21 20 18 17 16 15 15 16 16 16 15 14 14 13 14 15 16 16 16 15 15 14 14 15 15 15 15 14 13 13 14 14 15 14 15 15 16 17 16 14 13 12 11 10 10 10 10 10 10 9 9 8 8 7 5 3 2 3 5 5 6 6 7
30 32 35 35 32 30 30 28 27 28 28 26 21 16 12 9 9 13 17 20 21 23 27 30 32 32 32 31 29 27 24 22 21 21 21 21 20 20 19 17 16 16 16 16 15 14 13 13 14 14 15 15 16 16 16 16 17 17 17 17 17 16 15 15 14 15 16 16 17 17 17 18 17 16 14 13 13 12 11 10 10 11 11 10 9 9 9 8 7 4 2 3 3 4 4 5 7
31 33 33 31 29 31 34 32 30 30 31 28 20 15 15 14 11 11 13 16 18 20 25 30 31 31 32 31 29 28 25 22 21 19 19 19 20 21 20 19 19 18 17 16 15 14 14 15 15 16 16 16 16 16 16 17 18 18 18 18 18 18 17 17 17 17 18 18 18 18 18 19 18 17 16 15 14 14 13 11 10 11 12 11 11 11 11 10 8 5 3 2 2 3 4 5 7
36 33 29 29 32 35 37 35 33 32 30 26 18 15 15 15 13 12 12 16 18 18 22 26 29 30 30 29 28 28 26 24 21 17 17 18 19 21 21 22 21 20 20 18 18 17 17 17 17 17 17 17 17 18 18 19 19 19 20 20 20 20 20 20 20 20 20 19 19 19 19 20 20 19 17 16 16 15 14 12 11 11 12 12 12 12 12 11 9 6 4 3 3 3 4 6 8
40 34 32 35 37 36 37 36 32 30 27 20 14 12 11 10 11 12 14 16 18 20 22 25 27 28 27 27 26 26 26 25 22 19 18 17 18 18 19 20 20 21 21 21 21 21 20 19 18 18 18 18 19 19 19 19 19 19 19 20 21 22 22 23 23 23 22 21 20 20 21 22 22 20 19 17 17 17 16 14 13 12 12 13 13 13 13 13 11 8 6 5 4 4 4 6 9
41 38 39 41 39 36 37 36 32 30 27 19 13 10 8 9 11 12 15 16 17 20 22 24 27 27 26 26 25 25 25 24 22 20 20 19 17 16 16 17 19 20 20 21 22 23 22 21 20 19 19 19 18 18 17 18 17 18 19 20 21 22 23 24 24 25 24 22 23 23 23 23 23 22 20 19 18 18 18 16 15 14 13 13 14 15 15 14 13 11 9 8 6 5 4 7 9
41 40 41 40 39 38 38 37 34 32 29 22 15 8 6 11 14 14 15 17 18 19 21 23 25 26 27 26 26 25 25 24 22 19 20 20 19 16 15 16 18 20 21 22 24 24 24 23 22 21 21 20 18 17 17 18 18 19 19 20 21 22 23 24 25 25 25 24 25 25 24 24 24 23 21 20 20 20 19 18 16 15 14 14 14 15 16 16 15 13 11 10 8 6 6 7 9
42 41 41 39 38 39 39 38 34 31 28 24 19 11 10 10 11 12 14 17 20 21 22 23 24 25 27 28 27 26 25 25 22 20 21 23 21 17 16 17 18 21 23 23 24 25 25 24 22 22 21 20 19 18 18 19 20 20 19 19 19 20 22 23 24 25 25 26 26 26 26 26 25 24 23 21 21 21 21 19 18 16 15 15 15 16 16 17 17 15 13 12 10 7 7 9 10
Wind_Direction
113 105 107 107 108 110 113 112 111 109 110 111 108 106 101 98 98 98 98 103 109 119 126 128 128 122 119 120 123 124 124 125 120 120 122 124 127 131 139 139 141 146 137 113 106 109 107 110 109 107 107 105 109 111 113 113 99 94 93 93 94 96 96 94 94 90 85 83 80 79 79 80 82 85 89 87 84 84 87 91 93 95 96 99 101 102 106 107 111 115 116 117 118 117 115 114 114
99 100 106 108 107 107 107 111 114 114 115 112 107 105 103 104 104 101 95 96 102 113 122 127 129 124 122 123 124 124 124 124 124 127 127 129 128 128 139 140 142 149 132 108 111 118 114 114 109 102 99 101 111 113 110 99 90 90 91 93 96 97 95 93 91 85 82 80 77 77 79 81 85 88 86 81 78 78 81 84 88 91 94 98 103 105 106 108 111 115 118 120 119 115 112 112 116
94 99 107 110 107 106 108 113 115 115 114 109 109 110 110 109 107 103 96 96 102 112 121 127 131 128 126 125 124 124 124 123 125 131 132 135 132 130 139 142 143 145 125 115 121 125 120 116 109 102 102 108 117 112 104 93 89 90 92 96 97 95 93 90 86 83 83 80 80 82 83 85 86 83 78 75 74 74 75 78 84 90 94 99 104 106 107 109 111 113 116 119 118 113 110 107 110
102 100 106 109 107 110 112 113 113 113 114 112 112 112 113 112 110 106 100 101 105 114 121 126 132 131 129 127 125 122 119 117 122 132 137 139 138 135 141 146 144 142 130 125 129 128 122 116 109 108 115 122 123 112 100 93 91 94 99 100 96 93 90 86 84 84 84 85 88 87 86 84 78 72 69 69 70 72 72 75 77 83 93 100 105 108 110 112 112 112 112 110 109 107 105 102 100
109 101 99 102 108 112 112 113 115 118 121 122 118 115 115 115 114 110 107 107 110 115 119 126 132 132 131 127 123 120 113 107 117 138 144 141 141 141 144 147 142 137 133 126 128 126 118 113 109 113 120 121 115 105 100 97 98 102 105 100 93 89 85 84 84 85 88 91 89 85 82 76 70 65 64 67 68 70 71 72 72 74 86 100 108 110 112 112 110 106 102 100 97 97 98 98 98
124 108 98 96 102 105 110 117 122 124 127 126 123 122 120 119 120 117 115 116 119 121 122 128 133 134 133 127 122 117 109 97 106 140 151 149 145 147 146 143 136 130 127 124 125 122 115 112 112 118 118 110 105 104 105 105 106 109 105 96 90 85 83 83 84 85 88 88 83 79 75 69 66 64 65 68 68 68 68 69 69 71 79 97 112 115 114 110 105 102 99 96 93 91 92 97 103
134 115 103 99 99 102 114 123 128 130 129 128 126 126 125 124 126 126 124 124 126 128 130 134 136 139 140 133 127 121 113 103 106 131 167 170 150 145 148 139 131 127 128 127 122 114 110 112 119 124 115 104 105 110 114 113 112 110 102 92 87 83 82 83 83 84 83 81 77 73 69 66 64 64 66 67 67 65 64 65 68 72 78 93 106 111 111 109 103 100 99 96 95 95 96 101 107
133 123 114 108 104 109 119 128 138 140 139 137 134 134 134 131 131 134 134 135 134 134 136 139 139 140 146 140 133 129 120 114 118 116 221 188 154 139 145 133 123 122 126 125 115 108 108 118 128 127 113 106 112 119 122 118 113 107 97 90 86 84 82 82 83 83 80 76 72 68 65 64 62 62 64 65 67 66 65 66 71 75 79 87 95 98 102 106 102 97 96 96 99 101 102 104 104
136 127 119 117 117 118 120 134 152 156 154 149 148 147 143 137 138 141 143 148 147 143 143 145 143 141 146 145 138 132 125 125 128 127 221 192 152 127 128 116 103 103 112 114 105 108 122 140 144 127 114 115 123 128 128 120 111 102 95 90 87 84 83 84 86 84 80 75 70 67 66 65 65 65 66 69 71 72 74 75 77 78 80 86 91 94 98 102 102 99 100 99 97 97 99 100 103
135 125 121 121 124 123 124 142 164 176 177 163 157 153 148 144 146 151 155 158 156 154 151 150 152 146 148 155 149 141 134 129 126 134 159 176 141 117 114 107 90 76 83 92 96 118 162 183 158 130 122 126 129 132 129 118 106 98 94 91 88 87 87 88 90 87 83 78 74 71 69 70 71 72 74 75 77 80 80 80 82 84 87 89 91 95 98 101 102 101 100 94 87 85 88 92 100
132 125 124 125 130 130 132 147 167 194 208 194 172 158 149 149 152 157 165 168 164 161 152 150 155 150 150 165 164 153 144 133 128 135 143 155 140 111 107 104 95 71 63 65 72 163 207 191 158 135 129 130 132 132 125 112 102 97 94 92 91 91 92 94 94 91 88 84 81 78 77 79 79 80 81 82 84 85 85 86 87 90 92 92 92 93 94 94 92 89 87 84 81 77 76 82 91
133 125 125 124 136 150 143 148 169 205 233 236 220 195 171 171 167 162 169 176 174 165 153 149 151 149 151 167 177 163 154 144 136 138 144 158 143 111 98 90 88 72 58 48 27 269 214 186 161 142 133 131 131 129 119 107 101 99 97 96 96 96 97 99 97 95 93 91 89 88 87 86 86 86 87 89 89 89 90 90 91 92 92 92 90 90 89 89 88 85 82 81 78 75 72 70 74
135 126 118 109 123 143 147 145 153 194 232 241 234 223 204 188 179 170 172 176 179 169 154 145 138 135 139 158 181 171 166 156 142 139 154 182 156 121 96 87 76 62 49 33 12 282 199 181 162 147 135 133 132 126 114 105 104 104 103 101 101 102 103 102 100 100 99 99 98 95 93 91 91 91 91 92 92 94 94 94 94 93 92 91 89 89 89 90 90 88 85 82 78 74 71 69 71
137 128 117 111 122 133 141 142 142 159 202 227 227 222 210 190 178 172 175 175 177 168 151 144 136 131 134 146 172 176 178 168 149 141 156 201 169 129 110 99 71 47 31 15 22 139 177 181 162 146 138 136 133 125 113 108 110 110 109 107 106 107 107 105 104 105 106 105 103 100 98 96 96 95 95 95 96 97 97 97 96 94 93 92 90 89 89 89 89 88 86 82 78 76 74 74 74
142 135 125 126 135 141 145 144 142 147 169 197 208 210 203 190 181 174 175 177 174 164 148 144 142 141 146 149 153 165 185 180 159 146 153 188 177 146 140 121 66 25 10 359 51 138 161 179 156 144 142 139 132 122 115 115 118 117 115 112 111 112 110 109 109 110 111 110 108 105 103 101 100 99 98 99 100 100 99 98 97 96 95 94 92 89 89 89 89 88 86 83 80 78 76 76 76
153 147 142 143 149 156 154 148 147 153 169 179 183 189 191 189 184 178 178 181 178 167 148 142 145 148 152 151 147 151 173 188 173 157 157 176 181 173 170 169 310 341 349 343 177 145 157 166 151 147 146 142 133 123 119 122 124 122 119 117 116 115 114 115 115 116 116 114 112 109 107 105 103 101 100 101 101 101 100 98 96 96 95 93 91 89 88 87 87 86 85 83 81 79 77 77 76
170 163 162 157 155 164 160 154 159 169 184 184 175 172 177 180 179 180 180 183 181 168 149 142 148 157 161 158 152 150 158 187 190 172 168 176 182 185 190 218 267 310 335 324 182 152 155 156 149 153 152 147 136 127 124 126 127 124 121 120 119 119 120 121 120 120 119 118 116 114 111 109 107 105 103 102 102 102 100 98 96 94 93 92 89 87 85 83 82 80 79 79 78 79 78 77 76
184 175 174 165 157 168 167 163 177 183 189 194 184 171 169 166 162 170 177 177 174 166 153 145 150 164 174 169 160 156 157 177 206 195 184 182 184 192 207 239 264 292 320 286 178 160 156 156 153 157 158 150 136 128 128 129 128 125 123 122 122 123 124 124 124 123 122 122 121 119 116 113 111 108 106 104 104 102 100 98 95 92 89 88 86 84 82 81 80 77 75 75 74 75 76 76 76
190 179 182 175 163 178 179 172 191 193 189 195 192 179 170 160 148 154 167 162 158 162 156 147 147 160 181 184 175 172 166 170 202 214 201 192 188 194 220 247 262 284 302 218 178 168 161 158 158 161 159 148 135 130 131 131 130 127 126 125 125 127 128 128 127 126 126 126 126 124 121 118 114 111 108 106 105 104 101 98 95 91 87 85 82 81 81 81 80 77 75 73 71 70 70 72 73
194 181 185 180 171 188 192 181 196 200 195 197 195 187 177 164 148 144 150 144 138 143 146 146 146 153 187 216 204 193 184 176 185 207 205 194 190 199 225 245 252 259 254 194 178 175 168 162 162 162 156 144 135 133 134 134 132 130 128 128 129 130 131 131 130 129 130 131 131 129 125 120 116 113 110 108 107 105 102 99 97 94 90 87 84 81 78 77 76 75 72 70 67 65 65 67 69
196 191 189 181 176 186 192 189 196 196 195 198 193 191 186 173 157 145 140 131 124 124 127 138 145 155 185 223 220 212 210 196 187 197 203 194 192 200 217 227 224 214 199 184 178 179 175 167 162 160 152 141 135 135 136 136 134 133 132 132 133 133 133 133 133 134 134 134 134 131 127 122 117 114 111 108 106 104 101 98 97 95 93 91 88 84 81 78 76 75 74 71 68 65 64 64 66
195 199 193 184 181 180 187 191 196 193 191 197 195 193 187 176 163 151 141 127 119 118 114 119 130 145 168 207 232 230 227 219 202 200 204 200 198 202 213 218 210 196 186 182 178 178 178 169 160 156 149 139 136 137 137 137 136 134 135 135 136 135 136 136 137 138 138 137 136 132 128 123 119 116 112 109 104 101 98 96 94 93 92 91 89 88 86 83 81 79 77 76 73 69 66 63 62
196 201 194 189 185 182 190 193 195 194 191 199 200 199 189 172 162 154 142 123 115 119 117 114 117 126 146 189 245 254 241 231 218 211 212 209 205 206 212 212 200 190 183 182 180 177 176 170 161 155 147 140 139 140 141 139 137 136 138 139 139 138 139 140 141 141 141 139 137 134 131 127 123 119 117 113 107 102 98 95 93 91 90 88 87 85 85 84 83 81 79 78 77 75 71 67 63
200 202 198 194 190 189 195 195 196 198 201 208 206 202 188 168 157 152 142 125 114 114 121 119 120 125 145 190 233 253 245 235 226 220 221 219 214 212 212 200 186 185 182 181 181 176 174 170 163 155 148 142 141 143 144 142 140 140 142 142 142 142 142 143 144 143 143 141 138 136 134 131 128 124 122 117 112 105 99 95 93 91 89 87 85 83 82 82 82 81 80 79 79 79 78 75 70
203 203 205 203 200 199 194 192 200 201 208 213 208 200 181 162 152 148 142 131 117 108 110 114 114 117 131 216 238 241 235 229 224 218 216 212 208 204 197 188 182 180 178 181 181 177 174 170 164 156 148 143 144 146 146 144 143 144 145 147 147 146 147 147 146 146 144 142 139 138 137 135 132 128 125 119 112 106 100 96 93 91 88 85 83 81 79 80 81 82 82 79 74 74 76 78 78
208 207 211 211 210 207 192 192 196 193 204 209 202 194 176 159 150 145 139 130 117 104 95 89 89 90 90 214 239 239 228 221 222 220 213 206 204 197 188 185 179 174 175 180 181 179 174 170 166 159 151 146 147 148 146 145 146 148 149 151 152 151 150 149 148 147 145 143 141 140 139 137 133 129 124 117 111 106 101 98 95 93 91 87 82 78 75 74 75 77 79 81 80 76 73 76 80
213 214 216 218 220 213 198 195 186 180 192 196 186 174 161 148 142 140 133 124 114 102 89 77 70 70 79 150 218 230 229 223 220 218 213 210 208 197 188 183 173 170 173 177 182 181 175 170 168 163 157 152 150 150 148 147 149 151 152 153 155 153 152 151 149 148 146 144 143 142 140 137 133 129 124 117 111 106 103 100 98 97 96 92 86 80 75 71 71 73 76 83 86 84 78 74 79
216 219 219 223 226 213 203 200 188 179 176 182 172 155 151 138 127 129 128 122 114 105 94 80 67 61 68 107 202 230 240 234 225 219 212 211 209 198 189 180 171 170 171 175 180 181 175 171 171 167 163 159 155 153 150 151 153 153 154 155 155 155 153 152 150 149 147 146 145 143 141 137 132 127 123 118 113 108 104 101 98 96 95 91 86 80 73 69 71 75 74 71 74 78 81 76 77
216 220 220 225 228 210 203 203 196 200 181 181 172 157 155 142 127 121 120 116 113 108 98 85 73 63 59 76 184 235 249 247 242 233 219 211 207 199 193 181 172 170 169 172 176 179 175 172 171 170 167 165 160 156 154 155 155 155 156 157 157 156 155 154 152 151 150 148 147 145 142 138 134 130 126 124 119 113 106 99 94 89 85 82 79 73 66 60 61 71 75 72 73 79 81 75 70
218 221 219 223 225 210 205 201 198 207 183 175 173 163 159 148 137 128 119 111 108 106 99 87 76 68 60 63 88 233 250 264 262 247 225 209 199 194 194 186 175 169 168 172 176 177 176 172 171 171 169 166 164 160 158 158 157 157 157 158 159 158 157 156 155 154 153 152 149 146 143 140 137 134 131 129 125 117 107 96 88 82 76 72 68 63 54 45 40 52 75 87 91 93 92 85 71
221 221 219 221 222 213 210 202 200 206 191 187 181 166 157 151 145 137 126 116 110 106 98 87 75 67 61 56 55 14 262 282 272 243 218 200 189 183 189 187 176 169 171 175 178 178 177 175 174 173 170 167 167 165 163 161 160 159 159 159 159 159 159 158 156 155 155 153 151 149 148 146 142 138 134 130 124 114 104 92 82 72 64 57 53 46 35 25 13 17 45 97 119 125 123 118 97
226 222 217 219 219 216 217 209 206 209 199 185 175 167 160 156 151 143 133 124 118 111 101 89 75 66 60 53 44 28 319 300 256 223 204 190 181 178 182 183 177 176 178 178 180 181 179 178 176 174 173 170 170 169 168 166 164 162 161 162 161 161 160 159 158 157 156 154 153 154 154 153 148 143 138 131 122 111 98 82 68 56 46 36 31 26 15 2 350 350 357 33 131 138 140 142 142
231 226 217 215 215 214 218 216 212 212 200 173 171 169 164 162 155 146 138 129 125 118 108 96 80 68 61 54 42 25 358 330 224 201 192 185 180 178 179 180 181 183 182 179 181 185 183 181 179 178 176 175 174 174 174 171 170 168 166 166 165 164 162 161 162 161 160 159 158 159 158 156 151 146 141 132 122 108 87 64 49 38 29 20 12 4 354 347 341 332 327 334 20 87 119 141 168
239 231 217 214 212 213 219 219 218 219 204 174 174 171 166 164 158 151 144 136 132 124 116 106 90 75 62 54 44 25 5 358 202 188 186 187 185 180 177 179 184 186 183 180 184 187 186 185 184 181 178 178 179 178 177 175 174 174 172 172 170 168 167 167 168 168 168 168 166 163 160 157 153 148 142 135 123 104 71 46 35 27 20 10 1 353 347 346 341 332 332 345 4 19 23 47 171
244 239 220 214 213 214 220 223 224 227 211 179 177 176 171 168 161 156 150 140 138 132 124 115 101 86 67 54 44 28 11 5 236 189 186 190 192 186 178 180 185 186 183 182 186 187 186 190 190 184 180 181 182 180 179 178 177 178 179 178 177 175 174 172 172 174 174 174 171 165 161 158 154 150 145 137 125 96 58 38 29 25 17 8 1 357 357 355 349 344 351 4 10 7 2 2 351
237 241 229 218 214 215 220 225 231 237 223 187 181 182 176 172 167 162 157 152 151 145 133 122 112 99 80 58 46 34 16 8 328 202 190 190 196 195 185 181 184 183 182 183 185 186 188 192 192 188 187 184 182 181 181 181 181 183 184 184 182 180 177 176 176 176 176 175 172 166 162 159 155 152 148 139 123 79 47 36 31 27 20 18 18 17 15 12 9 8 12 17 13 5 3 5 358
229 235 233 224 217 216 221 228 237 245 235 200 188 189 182 178 174 170 169 166 159 151 142 136 126 113 99 74 51 34 15 6 277 204 193 189 192 197 192 185 182 180 180 180 181 185 188 190 191 190 189 186 184 184 183 184 184 186 187 186 185 183 181 179 179 178 175 172 169 166 163 161 157 155 152 141 111 54 35 33 33 32 32 35 35 33 31 32 35 38 40 36 24 17 19 16 13
228 229 232 228 219 215 221 230 237 247 244 220 201 196 188 185 181 178 179 170 161 158 154 149 144 136 123 103 71 43 21 319 229 203 190 187 187 190 192 187 182 181 180 179 179 185 187 188 190 187 186 187 186 186 184 185 186 186 186 186 186 185 182 180 179 176 173 171 168 166 165 164 163 162 156 140 93 33 23 29 32 38 49 48 43 41 42 47 52 55 56 52 41 36 32 25 24
228 228 228 225 217 212 218 227 231 240 244 236 221 206 195 192 187 183 178 169 167 168 165 162 159 151 139 133 122 88 54 261 233 213 193 186 185 185 188 186 184 184 182 180 181 182 182 183 183 181 184 187 186 185 184 185 185 185 184 186 188 185 179 179 178 176 175 173 171 170 171 171 170 168 157 137 85 34 22 28 34 46 57 52 45 46 50 55 59 58 59 54 44 37 30 26 25
221 224 225 220 215 213 215 221 224 231 238 238 231 213 200 197 193 183 177 175 176 175 173 173 166 155 148 147 143 120 113 228 226 220 198 182 183 184 186 186 187 187 183 182 180 176 177 179 176 177 183 185 184 184 184 183 182 182 183 185 187 184 182 184 183 181 180 177 176 176 175 176 177 175 163 135 79 43 32 37 37 45 52 45 40 43 47 46 41 41 46 44 37 31 25 24 22
215 218 219 216 217 217 213 218 222 227 234 237 237 223 206 201 197 186 185 185 181 180 180 178 171 161 154 147 137 124 128 203 219 220 200 177 182 187 188 189 189 188 186 182 178 174 177 179 178 180 183 182 182 182 180 179 181 182 183 184 187 188 190 190 188 186 184 182 182 180 179 183 188 193 184 144 67 32 28 30 32 37 40 31 25 19 1 349 351 7 23 30 31 30 29 26 22
214 214 214 215 219 220 216 216 220 226 232 235 240 235 212 203 202 194 195 193 185 186 180 173 176 171 159 147 138 135 139 174 207 215 203 184 182 188 190 192 191 190 189 185 179 178 179 180 180 182 183 183 183 180 176 179 184 185 187 189 190 191 193 194 192 191 190 189 187 186 189 196 204 214 211 194 3 7 3 356 14 22 19 12 3 348 326 317 331 357 13 21 23 25 24 22 19
216 211 211 217 219 221 220 218 220 226 231 232 238 243 225 207 206 202 201 199 192 189 178 170 177 173 165 157 146 141 141 156 192 205 205 194 184 184 187 191 192 193 194 190 184 182 182 180 180 182 186 187 186 180 178 183 189 192 195 194 191 191 193 196 199 199 197 196 196 198 202 206 213 221 223 231 286 330 333 324 340 355 352 346 340 326 311 307 335 3 13 14 16 16 17 18 17
221 212 212 219 219 218 220 220 222 225 230 232 235 244 240 215 207 207 205 203 198 190 177 172 176 172 170 167 155 148 145 150 178 195 202 199 189 184 184 187 190 194 195 192 188 185 183 181 182 184 187 188 186 184 183 190 197 203 205 202 197 196 192 194 202 206 206 205 205 209 214 217 222 228 233 243 268 300 309 306 311 322 327 321 319 313 298 291 338 7 13 12 14 16 18 20 17
223 212 213 219 219 218 219 220 222 224 229 233 233 239 245 223 205 209 209 206 202 190 179 176 174 174 175 173 167 158 151 151 166 186 197 199 197 190 185 186 188 189 189 189 191 189 185 183 182 183 185 185 186 186 189 197 204 210 215 215 215 210 197 193 201 208 212 213 213 216 220 226 234 240 246 255 270 288 297 297 293 292 300 300 304 301 280 268 326 6 14 15 20 21 20 18 15
216 210 212 216 218 218 220 221 222 225 232 237 232 235 245 230 200 208 213 209 202 190 183 180 176 179 180 178 176 167 157 154 159 177 191 196 201 195 188 189 189 185 182 185 189 190 187 185 183 182 184 185 186 188 194 201 207 212 217 222 226 222 209 201 206 210 213 217 219 222 226 231 239 247 254 262 273 284 291 290 282 275 276 284 293 288 264 251 290 1 18 22 25 21 14 11 9
211 208 209 214 217 218 221 222 223 229 239 243 233 231 245 240 199 206 215 207 197 191 188 184 179 182 182 180 181 173 163 159 160 172 186 195 201 195 191 192 192 188 185 186 187 186 187 186 184 185 186 186 187 191 197 203 209 214 218 222 226 227 219 213 217 217 216 219 224 228 233 239 245 251 255 262 271 282 288 287 277 266 262 273 284 277 257 251 275 356 22 28 26 17 10 8 6
212 208 208 213 218 219 221 222 224 232 245 249 235 230 243 242 191 199 213 203 194 194 190 186 182 183 183 182 182 177 169 166 165 169 181 194 197 191 189 191 192 190 187 188 188 187 187 185 185 186 185 185 186 190 196 201 207 214 220 223 225 227 223 221 224 225 223 223 226 230 236 242 246 249 252 258 269 280 288 289 281 268 260 269 276 266 252 251 274 343 21 28 21 12 9 9 10
218 213 213 217 221 223 225 225 230 241 253 257 241 232 242 246 175 189 203 200 196 195 191 189 187 186 185 183 180 179 178 173 170 170 176 187 190 187 188 190 191 189 186 188 190 190 191 189 188 187 185 186 188 190 192 194 198 207 217 223 225 224 220 222 227 230 230 229 228 231 236 239 242 245 250 256 264 274 283 288 285 274 263 268 270 259 248 247 267 319 14 23 16 11 11 12 14
226 222 223 227 230 233 237 237 241 249 256 261 251 239 242 237 164 179 189 195 195 192 193 193 192 189 186 184 183 186 188 181 176 176 175 178 183 187 190 190 190 190 191 192 192 194 196 195 194 192 190 190 191 192 194 195 198 206 214 221 225 225 223 225 228 232 235 235 232 232 235 240 243 244 247 253 258 264 273 284 287 275 265 268 269 257 245 245 256 283 352 14 16 14 13 13 14
226 226 228 233 237 242 249 251 250 254 258 261 256 243 225 175 162 169 178 190 192 192 194 195 196 193 188 188 191 195 197 191 185 183 179 176 180 187 192 192 190 192 194 193 193 195 197 201 203 202 199 196 195 197 199 201 205 211 217 222 225 227 229 230 232 234 238 239 238 236 236 240 245 246 247 250 255 259 264 276 284 278 269 269 269 257 246 244 251 263 322 5 17 13 8 9 12
222 223 224 229 234 241 246 248 249 252 254 256 255 238 222 217 205 183 181 187 191 193 193 195 199 198 194 196 197 200 203 202 197 191 185 181 182 188 193 194 193 195 196 192 192 196 199 205 208 211 211 206 203 203 204 207 212 218 222 225 228 229 230 232 234 237 239 241 242 241 239 240 243 247 247 248 251 254 259 267 277 280 274 269 267 258 249 247 249 255 301 344 6 0 352 358 5
225 224 224 228 231 234 240 243 244 248 250 252 247 228 228 235 214 192 188 186 192 195 191 196 203 202 203 204 203 203 205 209 209 201 194 191 191 191 194 199 200 202 203 202 204 206 208 212 212 215 218 215 214 213 212 214 218 223 227 230 233 234 235 236 236 237 238 240 242 244 244 244 244 245 245 245 247 251 256 261 268 276 276 271 265 257 252 251 250 252 275 298 331 333 328 345 357
222 222 222 226 226 227 233 237 238 241 246 249 245 232 233 227 198 187 185 178 185 193 192 196 202 204 208 210 209 208 206 211 212 206 203 205 204 200 198 202 204 206 210 212 215 216 217 219 219 220 220 219 220 219 218 219 220 223 226 230 233 235 236 236 237 238 238 239 241 244 247 248 247 247 246 244 244 248 253 256 258 266 273 273 265 256 254 255 252 251 256 263 277 298 315 342 350
217 216 215 220 223 224 229 234 236 240 246 252 251 241 232 209 186 188 191 181 182 191 194 197 200 206 211 212 213 212 210 211 209 203 205 211 217 215 211 211 212 213 215 217 220 221 222 223 224 225 225 222 222 222 222 224 224 225 227 230 233 235 236 236 237 238 239 240 241 242 244 247 248 249 248 246 245 247 251 252 254 259 267 272 266 256 254 256 254 251 250 252 259 279 314 338 342
216 215 217 220 222 223 227 233 235 238 245 248 245 239 225 197 181 183 193 194 193 194 198 201 202 205 210 209 210 212 214 214 208 203 203 207 218 226 228 230 228 225 223 221 223 224 225 226 227 229 230 227 224 223 224 227 228 230 231 234 236 237 239 239 239 239 239 241 242 242 242 245 248 249 248 248 247 248 249 250 252 257 262 268 266 256 253 255 255 252 250 250 256 273 311 329 331
218 219 222 225 227 227 228 231 233 235 239 241 241 233 192 185 182 177 186 193 196 198 199 202 204 204 206 206 205 206 210 211 209 209 209 207 210 219 230 238 238 236 231 223 221 224 224 224 225 228 232 231 225 221 223 226 227 229 232 236 239 241 242 242 241 240 240 240 241 242 243 244 247 248 248 247 247 248 249 248 250 255 259 263 263 256 251 253 254 253 251 250 256 274 302 314 319
221 222 225 227 231 233 233 233 235 239 241 244 246 221 166 171 180 180 191 193 194 197 197 200 202 202 203 203 203 205 206 207 207 211 212 207 204 211 226 237 239 240 238 230 225 225 226 225 225 228 231 231 224 220 222 225 226 229 232 237 242 246 248 248 246 243 240 239 240 241 242 243 245 247 247 245 245 247 248 248 249 253 257 260 261 255 250 251 253 253 251 251 256 272 291 300 310